QPF
0.00 0.00 0.00 0.00 0.00 0.00 0.00 0.00 0.00 0.00 0.00 0.00 0.00 0.00 0.00 0.00 0.00 0.00 0.00 0.00 0.01 0.06 0.12 0.17 0.18 0.19 0.16 0.18 0.30 0.37 0.32 0.25 0.23 0.21 0.16 0.11 0.08 0.05 0.03 0.00 0.00 0.00 0.00 0.00
0.00 0.00 0.00 0.00 0.00 0.00 0.00 0.00 0.00 0.00 0.00 0.00 0.00 0.00 0.00 0.00 0.00 0.00 0.00 0.00 0.04 0.14 0.23 0.26 0.34 0.36 0.30 0.41 0.56 0.54 0.38 0.27 0.22 0.22 0.15 0.11 0.08 0.06 0.06 0.04 0.01 0.00 0.00 0.00
0.00 0.00 0.00 0.00 0.00 0.00 0.00 0.00 0.00 0.00 0.00 0.00 0.00 0.00 0.00 0.00 0.00 0.00 0.01 0.01 0.04 0.11 0.25 0.40 0.50 0.52 0.53 0.59 0.59 0.49 0.32 0.20 0.15 0.20 0.17 0.15 0.08 0.07 0.07 0.05 0.02 0.00 0.00 0.00
0.00 0.00 0.00 0.00 0.00 0.00 0.00 0.00 0.00 0.00 0.00 0.00 0.00 0.00 0.00 0.00 0.00 0.01 0.03 0.05 0.06 0.11 0.21 0.38 0.52 0.52 0.57 0.55 0.43 0.31 0.26 0.19 0.12 0.12 0.13 0.10 0.06 0.03 0.02 0.02 0.03 0.02 0.01 0.00
0.00 0.00 0.00 0.00 0.00 0.00 0.00 0.00 0.00 0.00 0.00 0.00 0.00 0.00 0.00 0.00 0.01 0.04 0.04 0.05 0.07 0.16 0.27 0.32 0.32 0.33 0.38 0.34 0.24 0.19 0.16 0.14 0.13 0.11 0.14 0.15 0.07 0.03 0.01 0.01 0.02 0.05 0.03 0.00
0.00 0.00 0.00 0.00 0.00 0.00 0.00 0.00 0.00 0.00 0.01 0.02 0.02 0.01 0.01 0.00 0.01 0.04 0.05 0.03 0.04 0.10 0.16 0.21 0.21 0.21 0.23 0.20 0.15 0.13 0.14 0.19 0.20 0.18 0.17 0.17 0.13 0.09 0.06 0.03 0.03 0.02 0.01 0.00
0.01 0.00 0.00 0.00 0.00 0.00 0.00 0.00 0.00 0.02 0.09 0.13 0.12 0.05 0.02 0.01 0.00 0.00 0.00 0.01 0.03 0.05 0.06 0.08 0.11 0.13 0.11 0.09 0.06 0.07 0.09 0.11 0.13 0.15 0.17 0.17 0.18 0.15 0.12 0.09 0.06 0.04 0.01 0.01
0.02 0.03 0.01 0.00 0.00 0.00 0.00 0.00 0.00 0.01 0.01 0.03 0.03 0.03 0.02 0.01 0.01 0.00 0.00 0.00 0.00 0.01 0.01 0.02 0.03 0.04 0.04 0.04 0.04 0.04 0.04 0.06 0.07 0.09 0.10 0.12 0.15 0.14 0.14 0.18 0.12 0.10 0.07 0.03
0.01 0.00 0.00 0.00 0.00 0.00 0.00 0.00 0.00 0.00 0.00 0.00 0.01 0.03 0.04 0.06 0.09 0.05 0.01 0.00 0.00 0.00 0.00 0.01 0.01 0.01 0.02 0.02 0.02 0.02 0.02 0.02 0.03 0.03 0.04 0.04 0.07 0.09 0.11 0.14 0.14 0.12 0.13 0.07
0.00 0.00 0.00 0.00 0.00 0.00 0.00 0.00 0.00 0.00 0.00 0.00 0.00 0.05 0.12 0.17 0.22 0.11 0.03 0.00 0.00 0.00 0.00 0.00 0.01 0.01 0.01 0.01 0.01 0.01 0.01 0.01 0.01 0.01 0.01 0.02 0.03 0.05 0.06 0.08 0.11 0.12 0.12 0.10
0.00 0.00 0.00 0.00 0.01 0.00 0.00 0.00 0.00 0.00 0.00 0.01 0.02 0.07 0.08 0.12 0.11 0.07 0.03 0.01 0.00 0.00 0.00 0.00 0.00 0.00 0.00 0.01 0.01 0.01 0.01 0.01 0.01 0.01 0.01 0.01 0.02 0.03 0.04 0.05 0.06 0.08 0.09 0.09
0.00 0.00 0.00 0.00 0.01 0.01 0.00 0.00 0.00 0.00 0.00 0.00 0.02 0.09 0.06 0.05 0.04 0.03 0.01 0.01 0.00 0.00 0.00 0.00 0.00 0.00 0.00 0.00 0.00 0.01 0.01 0.01 0.01 0.01 0.01 0.01 0.01 0.01 0.01 0.02 0.03 0.05 0.06 0.07
0.00 0.00 0.00 0.01 0.02 0.01 0.00 0.00 0.00 0.00 0.00 0.01 0.08 0.15 0.08 0.04 0.03 0.02 0.01 0.00 0.00 0.00 0.00 0.00 0.00 0.00 0.00 0.00 0.01 0.01 0.01 0.01 0.01 0.01 0.01 0.01 0.01 0.01 0.01 0.01 0.02 0.03 0.04 0.06
0.00 0.00 0.00 0.00 0.00 0.00 0.00 0.00 0.00 0.00 0.02 0.04 0.06 0.17 0.12 0.03 0.01 0.01 0.00 0.00 0.00 0.00 0.00 0.00 0.00 0.00 0.00 0.00 0.00 0.00 0.00 0.00 0.00 0.00 0.01 0.01 0.01 0.02 0.02 0.02 0.02 0.02 0.03 0.05
0.00 0.00 0.00 0.00 0.00 0.00 0.00 0.00 0.00 0.00 0.01 0.07 0.06 0.09 0.07 0.02 0.00 0.00 0.00 0.00 0.00 0.00 0.00 0.00 0.00 0.00 0.00 0.00 0.00 0.00 0.00 0.00 0.00 0.00 0.01 0.01 0.01 0.01 0.02 0.02 0.02 0.02 0.02 0.03
0.00 0.00 0.00 0.00 0.01 0.00 0.00 0.00 0.00 0.00 0.00 0.01 0.02 0.03 0.01 0.00 0.00 0.00 0.00 0.00 0.00 0.00 0.00 0.00 0.00 0.00 0.00 0.00 0.00 0.00 0.00 0.00 0.00 0.00 0.00 0.00 0.00 0.01 0.01 0.01 0.01 0.02 0.02 0.04
0.00 0.00 0.00 0.00 0.00 0.01 0.05 0.02 0.00 0.00 0.00 0.00 0.00 0.01 0.00 0.00 0.00 0.00 0.00 0.00 0.00 0.00 0.00 0.00 0.00 0.00 0.00 0.00 0.00 0.00 0.00 0.00 0.00 0.00 0.00 0.00 0.00 0.00 0.00 0.00 0.01 0.02 0.03 0.04
0.00 0.00 0.00 0.00 0.00 0.04 0.05 0.01 0.00 0.00 0.00 0.00 0.00 0.00 0.00 0.00 0.00 0.00 0.00 0.00 0.00 0.00 0.00 0.00 0.00 0.00 0.00 0.00 0.00 0.00 0.00 0.00 0.00 0.00 0.00 0.00 0.01 0.01 0.01 0.01 0.02 0.03 0.03 0.04
0.00 0.00 0.00 0.00 0.00 0.03 0.01 0.00 0.00 0.00 0.00 0.00 0.00 0.00 0.00 0.00 0.00 0.00 0.00 0.00 0.00 0.00 0.00 0.00 0.00 0.00 0.00 0.00 0.00 0.00 0.00 0.00 0.00 0.00 0.00 0.00 0.01 0.01 0.02 0.03 0.04 0.05 0.06 0.05
0.00 0.00 0.00 0.00 0.00 0.02 0.01 0.00 0.00 0.00 0.00 0.00 0.00 0.00 0.00 0.00 0.00 0.00 0.00 0.00 0.00 0.00 0.00 0.00 0.00 0.00 0.00 0.00 0.00 0.00 0.00 0.00 0.00 0.00 0.01 0.01 0.01 0.03 0.04 0.05 0.06 0.07 0.09 0.06
0.00 0.00 0.00 0.00 0.00 0.01 0.00 0.00 0.00 0.00 0.00 0.00 0.00 0.00 0.00 0.00 0.00 0.00 0.00 0.00 0.00 0.00 0.00 0.00 0.00 0.00 0.00 0.00 0.00 0.01 0.02 0.02 0.02 0.02 0.03 0.03 0.04 0.06 0.05 0.06 0.08 0.09 0.09 0.09
0.00 0.00 0.00 0.00 0.00 0.01 0.00 0.00 0.00 0.00 0.00 0.00 0.00 0.00 0.00 0.00 0.00 0.00 0.00 0.00 0.00 0.00 0.00 0.00 0.00 0.00 0.00 0.00 0.02 0.04 0.05 0.04 0.05 0.06 0.06 0.06 0.07 0.05 0.03 0.07 0.10 0.11 0.13 0.12
0.00 0.00 0.00 0.00 0.00 0.00 0.00 0.00 0.00 0.00 0.00 0.00 0.00 0.00 0.00 0.00 0.00 0.00 0.00 0.00 0.00 0.00 0.00 0.00 0.00 0.00 0.01 0.02 0.04 0.05 0.05 0.06 0.06 0.07 0.07 0.07 0.07 0.07 0.07 0.08 0.09 0.10 0.12 0.12
0.00 0.00 0.00 0.00 0.00 0.00 0.00 0.00 0.00 0.00 0.00 0.00 0.00 0.00 0.00 0.00 0.00 0.00 0.00 0.00 0.00 0.00 0.00 0.00 0.00 0.02 0.03 0.03 0.04 0.05 0.05 0.06 0.07 0.07 0.07 0.08 0.08 0.08 0.09 0.10 0.09 0.09 0.10 0.12
0.00 0.00 0.00 0.00 0.00 0.00 0.00 0.00 0.00 0.00 0.00 0.00 0.00 0.00 0.00 0.00 0.00 0.00 0.00 0.00 0.00 0.00 0.00 0.01 0.02 0.03 0.03 0.03 0.03 0.03 0.05 0.07 0.09 0.09 0.09 0.10 0.10 0.10 0.10 0.11 0.10 0.10 0.11 0.10
0.00 0.00 0.00 0.00 0.00 0.00 0.00 0.00 0.00 0.00 0.00 0.00 0.00 0.00 0.00 0.00 0.00 0.00 0.00 0.00 0.00 0.00 0.01 0.03 0.04 0.05 0.05 0.05 0.05 0.05 0.06 0.10 0.13 0.12 0.11 0.12 0.13 0.12 0.11 0.11 0.12 0.08 0.05 0.02
MSLP
1007.31 1007.64 1007.78 1007.76 1007.61 1007.40 1007.18 1006.97 1006.76 1006.54 1006.26 1005.89 1005.43 1004.90 1004.36 1003.87 1003.51 1003.32 1003.34 1003.53 1003.84 1004.20 1004.52 1004.72 1004.79 1004.73 1004.58 1004.41 1004.29 1004.28 1004.45 1004.78 1005.25 1005.81 1006.42 1007.00 1007.52 1007.96 1008.32 1008.63 1008.91 1009.18 1009.45 1009.74
1007.81 1008.01 1008.01 1007.87 1007.64 1007.42 1007.24 1007.13 1007.06 1006.98 1006.85 1006.60 1006.23 1005.76 1005.25 1004.77 1004.42 1004.26 1004.32 1004.59 1005.00 1005.47 1005.90 1006.19 1006.30 1006.22 1006.00 1005.71 1005.44 1005.27 1005.27 1005.45 1005.80 1006.27 1006.80 1007.32 1007.78 1008.15 1008.44 1008.66 1008.85 1009.04 1009.25 1009.50
1008.27 1008.33 1008.21 1007.98 1007.71 1007.51 1007.41 1007.42 1007.51 1007.61 1007.64 1007.54 1007.28 1006.88 1006.40 1005.95 1005.61 1005.47 1005.56 1005.89 1006.38 1006.93 1007.43 1007.79 1007.93 1007.84 1007.57 1007.18 1006.78 1006.47 1006.31 1006.35 1006.56 1006.92 1007.35 1007.78 1008.15 1008.43 1008.62 1008.73 1008.82 1008.91 1009.05 1009.25
1008.64 1008.58 1008.35 1008.06 1007.80 1007.65 1007.66 1007.83 1008.11 1008.39 1008.60 1008.64 1008.50 1008.17 1007.73 1007.27 1006.92 1006.77 1006.86 1007.19 1007.70 1008.29 1008.84 1009.22 1009.39 1009.30 1009.00 1008.55 1008.07 1007.65 1007.39 1007.31 1007.41 1007.66 1007.99 1008.32 1008.59 1008.77 1008.84 1008.85 1008.83 1008.82 1008.88 1009.03
1008.86 1008.70 1008.41 1008.10 1007.87 1007.81 1007.95 1008.29 1008.75 1009.23 1009.60 1009.79 1009.75 1009.48 1009.06 1008.59 1008.20 1007.99 1008.02 1008.30 1008.78 1009.34 1009.88 1010.28 1010.46 1010.38 1010.09 1009.64 1009.13 1008.67 1008.35 1008.21 1008.24 1008.40 1008.64 1008.88 1009.05 1009.13 1009.10 1009.01 1008.88 1008.79 1008.78 1008.86
1008.95 1008.71 1008.37 1008.06 1007.89 1007.93 1008.21 1008.71 1009.35 1009.99 1010.52 1010.84 1010.88 1010.67 1010.25 1009.75 1009.30 1009.00 1008.93 1009.11 1009.49 1009.98 1010.48 1010.86 1011.04 1011.00 1010.74 1010.34 1009.87 1009.44 1009.12 1008.97 1008.96 1009.08 1009.26 1009.42 1009.52 1009.51 1009.39 1009.21 1009.00 1008.83 1008.74 1008.76
1008.93 1008.62 1008.25 1007.96 1007.84 1007.97 1008.37 1009.01 1009.79 1010.57 1011.23 1011.65 1011.78 1011.61 1011.20 1010.67 1010.15 1009.75 1009.56 1009.60 1009.85 1010.24 1010.66 1011.00 1011.19 1011.19 1011.01 1010.69 1010.31 1009.96 1009.70 1009.58 1009.58 1009.68 1009.81 1009.92 1009.95 1009.88 1009.69 1009.44 1009.17 1008.93 1008.77 1008.72
1008.85 1008.48 1008.10 1007.82 1007.74 1007.93 1008.41 1009.14 1010.01 1010.89 1011.64 1012.15 1012.36 1012.24 1011.86 1011.32 1010.75 1010.27 1009.96 1009.87 1009.99 1010.26 1010.59 1010.88 1011.07 1011.12 1011.02 1010.81 1010.55 1010.30 1010.14 1010.07 1010.10 1010.19 1010.30 1010.37 1010.35 1010.22 1009.99 1009.69 1009.36 1009.07 1008.85 1008.73
1008.78 1008.38 1007.99 1007.71 1007.65 1007.86 1008.36 1009.12 1010.02 1010.95 1011.76 1012.34 1012.61 1012.57 1012.25 1011.74 1011.17 1010.65 1010.26 1010.07 1010.06 1010.21 1010.45 1010.70 1010.88 1010.97 1010.95 1010.84 1010.70 1010.57 1010.49 1010.48 1010.53 1010.62 1010.70 1010.72 1010.66 1010.49 1010.23 1009.90 1009.54 1009.21 1008.95 1008.76
1008.78 1008.37 1007.98 1007.69 1007.62 1007.81 1008.28 1009.00 1009.88 1010.80 1011.63 1012.26 1012.61 1012.66 1012.43 1012.01 1011.49 1010.98 1010.57 1010.32 1010.22 1010.28 1010.43 1010.62 1010.78 1010.89 1010.93 1010.91 1010.86 1010.81 1010.79 1010.82 1010.87 1010.94 1010.98 1010.96 1010.85 1010.65 1010.36 1010.02 1009.66 1009.31 1009.02 1008.78
1008.89 1008.51 1008.13 1007.84 1007.73 1007.86 1008.26 1008.89 1009.69 1010.55 1011.36 1012.01 1012.43 1012.58 1012.49 1012.19 1011.78 1011.35 1010.97 1010.69 1010.55 1010.53 1010.60 1010.73 1010.86 1010.96 1011.02 1011.04 1011.04 1011.03 1011.03 1011.05 1011.07 1011.09 1011.07 1010.99 1010.84 1010.62 1010.33 1009.99 1009.65 1009.31 1009.01 1008.74
1009.11 1008.79 1008.45 1008.17 1008.03 1008.09 1008.38 1008.89 1009.56 1010.32 1011.07 1011.72 1012.20 1012.46 1012.50 1012.35 1012.08 1011.75 1011.43 1011.17 1011.01 1010.93 1010.94 1010.99 1011.06 1011.12 1011.16 1011.18 1011.18 1011.16 1011.13 1011.10 1011.07 1011.01 1010.92 1010.78 1010.60 1010.36 1010.08 1009.78 1009.47 1009.17 1008.89 1008.63
1009.43 1009.20 1008.94 1008.69 1008.53 1008.52 1008.69 1009.06 1009.59 1010.22 1010.89 1011.50 1012.00 1012.34 1012.50 1012.50 1012.36 1012.15 1011.90 1011.67 1011.49 1011.36 1011.29 1011.26 1011.26 1011.25 1011.24 1011.21 1011.16 1011.09 1011.01 1010.91 1010.79 1010.65 1010.49 1010.30 1010.08 1009.84 1009.60 1009.35 1009.10 1008.86 1008.63 1008.39
1009.79 1009.70 1009.53 1009.34 1009.19 1009.13 1009.21 1009.44 1009.82 1010.31 1010.87 1011.41 1011.90 1012.28 1012.52 1012.62 1012.59 1012.46 1012.27 1012.06 1011.85 1011.67 1011.52 1011.39 1011.29 1011.21 1011.11 1011.01 1010.90 1010.76 1010.60 1010.42 1010.22 1010.00 1009.77 1009.54 1009.31 1009.10 1008.90 1008.72 1008.55 1008.39 1008.22 1008.03
1010.17 1010.22 1010.18 1010.08 1009.96 1009.89 1009.89 1010.01 1010.26 1010.61 1011.04 1011.49 1011.92 1012.29 1012.55 1012.69 1012.71 1012.62 1012.45 1012.23 1011.98 1011.72 1011.48 1011.26 1011.06 1010.88 1010.71 1010.53 1010.35 1010.14 1009.91 1009.66 1009.39 1009.11 1008.84 1008.59 1008.36 1008.18 1008.04 1007.94 1007.86 1007.78 1007.68 1007.54
1010.52 1010.71 1010.80 1010.81 1010.76 1010.70 1010.68 1010.73 1010.86 1011.08 1011.38 1011.71 1012.05 1012.35 1012.57 1012.69 1012.70 1012.60 1012.39 1012.12 1011.80 1011.47 1011.13 1010.82 1010.53 1010.26 1010.02 1009.78 1009.55 1009.29 1009.02 1008.72 1008.41 1008.10 1007.80 1007.55 1007.34 1007.20 1007.11 1007.08 1007.08 1007.07 1007.03 1006.93
1010.83 1011.14 1011.36 1011.48 1011.52 1011.51 1011.49 1011.49 1011.55 1011.66 1011.84 1012.05 1012.26 1012.46 1012.58 1012.62 1012.56 1012.38 1012.11 1011.76 1011.35 1010.93 1010.51 1010.11 1009.75 1009.43 1009.14 1008.87 1008.61 1008.34 1008.04 1007.73 1007.41 1007.09 1006.79 1006.54 1006.36 1006.24 1006.21 1006.22 1006.26 1006.30 1006.30 1006.23
1011.11 1011.50 1011.82 1012.03 1012.17 1012.22 1012.24 1012.23 1012.24 1012.28 1012.34 1012.42 1012.51 1012.57 1012.57 1012.49 1012.31 1012.03 1011.66 1011.21 1010.72 1010.21 1009.72 1009.27 1008.86 1008.51 1008.21 1007.94 1007.68 1007.42 1007.14 1006.84 1006.53 1006.21 1005.93 1005.69 1005.51 1005.41 1005.39 1005.42 1005.48 1005.53 1005.53 1005.46
1011.37 1011.80 1012.17 1012.46 1012.67 1012.79 1012.85 1012.86 1012.85 1012.82 1012.80 1012.77 1012.73 1012.65 1012.51 1012.30 1012.00 1011.60 1011.13 1010.59 1010.03 1009.46 1008.92 1008.44 1008.02 1007.67 1007.38 1007.14 1006.91 1006.68 1006.43 1006.15 1005.85 1005.55 1005.27 1005.03 1004.84 1004.73 1004.69 1004.70 1004.74 1004.77 1004.75 1004.66
1011.62 1012.04 1012.43 1012.76 1013.02 1013.19 1013.29 1013.32 1013.30 1013.24 1013.15 1013.02 1012.87 1012.67 1012.40 1012.07 1011.65 1011.16 1010.60 1010.00 1009.38 1008.78 1008.22 1007.74 1007.33 1007.00 1006.75 1006.53 1006.34 1006.14 1005.92 1005.67 1005.39 1005.09 1004.80 1004.53 1004.32 1004.17 1004.08 1004.04 1004.03 1004.02 1003.96 1003.85
1011.87 1012.25 1012.62 1012.95 1013.23 1013.43 1013.55 1013.59 1013.56 1013.47 1013.32 1013.13 1012.88 1012.58 1012.21 1011.78 1011.28 1010.71 1010.10 1009.47 1008.83 1008.23 1007.68 1007.22 1006.83 1006.54 1006.31 1006.12 1005.96 1005.78 1005.58 1005.33 1005.05 1004.74 1004.41 1004.11 1003.84 1003.63 1003.49 1003.39 1003.32 1003.26 1003.17 1003.04
1012.11 1012.42 1012.74 1013.05 1013.31 1013.51 1013.63 1013.67 1013.62 1013.50 1013.31 1013.05 1012.73 1012.36 1011.92 1011.43 1010.87 1010.28 1009.65 1009.01 1008.39 1007.81 1007.29 1006.85 1006.50 1006.22 1006.01 1005.83 1005.67 1005.49 1005.28 1005.01 1004.70 1004.35 1003.99 1003.63 1003.31 1003.03 1002.82 1002.66 1002.55 1002.46 1002.36 1002.24
1012.32 1012.56 1012.82 1013.08 1013.30 1013.47 1013.57 1013.58 1013.50 1013.34 1013.10 1012.80 1012.43 1012.00 1011.52 1011.00 1010.43 1009.84 1009.22 1008.62 1008.03 1007.48 1006.99 1006.58 1006.24 1005.96 1005.74 1005.54 1005.35 1005.14 1004.88 1004.57 1004.21 1003.81 1003.40 1002.99 1002.60 1002.27 1002.01 1001.81 1001.68 1001.58 1001.51 1001.45
1012.48 1012.66 1012.86 1013.06 1013.23 1013.36 1013.41 1013.38 1013.25 1013.05 1012.76 1012.41 1011.99 1011.54 1011.04 1010.50 1009.95 1009.38 1008.81 1008.24 1007.70 1007.19 1006.73 1006.32 1005.97 1005.67 1005.40 1005.15 1004.89 1004.61 1004.28 1003.91 1003.49 1003.03 1002.56 1002.10 1001.68 1001.32 1001.03 1000.83 1000.70 1000.64 1000.63 1000.65
1012.56 1012.70 1012.86 1013.02 1013.14 1013.21 1013.21 1013.12 1012.95 1012.68 1012.35 1011.95 1011.50 1011.02 1010.51 1009.99 1009.46 1008.93 1008.40 1007.88 1007.38 1006.90 1006.44 1006.03 1005.64 1005.28 1004.93 1004.59 1004.24 1003.86 1003.45 1003.00 1002.51 1002.00 1001.49 1001.00 1000.56 1000.19 999.91 999.73 999.65 999.66 999.74 999.88
1012.56 1012.69 1012.83 1012.96 1013.04 1013.07 1013.02 1012.87 1012.64 1012.33 1011.94 1011.50 1011.02 1010.52 1010.02 1009.51 1009.01 1008.52 1008.04 1007.56 1007.08 1006.61 1006.14 1005.69 1005.24 1004.79 1004.34 1003.89 1003.43 1002.94 1002.43 1001.90 1001.35 1000.80 1000.27 999.77 999.34 998.99 998.75 998.62 998.61 998.71 998.90 999.16
Thickness
5816 5804 5799 5807 5812 5811 5814 5814 5819 5836 5846 5827 5817 5821 5836 5848 5841 5839 5839 5838 5833 5826 5823 5822 5813 5809 5805 5800 5796 5792 5784 5781 5776 5771 5765 5764 5761 5762 5761 5760 5757 5753 5750 5747
5801 5792 5807 5813 5810 5807 5807 5805 5810 5823 5833 5821 5810 5813 5830 5839 5836 5833 5829 5823 5812 5805 5794 5791 5788 5785 5782 5782 5776 5770 5767 5767 5767 5764 5759 5758 5756 5755 5755 5753 5751 5749 5746 5743
5788 5792 5810 5807 5804 5800 5801 5798 5798 5797 5807 5813 5805 5800 5815 5827 5830 5823 5814 5805 5800 5792 5785 5777 5769 5765 5761 5762 5759 5758 5756 5754 5754 5753 5752 5750 5746 5745 5744 5743 5743 5743 5742 5739
5797 5809 5805 5799 5796 5795 5787 5800 5797 5793 5786 5785 5797 5779 5800 5807 5804 5798 5791 5785 5779 5775 5769 5762 5757 5749 5747 5746 5746 5749 5748 5746 5746 5744 5741 5738 5735 5733 5735 5736 5737 5738 5736 5735
5788 5801 5798 5791 5795 5798 5792 5803 5796 5791 5783 5777 5787 5777 5784 5797 5782 5776 5775 5772 5767 5762 5757 5749 5747 5743 5741 5741 5739 5736 5736 5737 5738 5735 5734 5731 5727 5728 5731 5732 5732 5731 5731 5732
5795 5812 5808 5803 5808 5807 5803 5796 5792 5787 5770 5738 5742 5733 5757 5778 5775 5769 5766 5764 5760 5754 5749 5742 5739 5735 5734 5733 5730 5727 5723 5725 5725 5725 5723 5721 5719 5718 5718 5720 5721 5722 5724 5727
5773 5789 5803 5811 5798 5799 5792 5773 5754 5745 5726 5708 5717 5717 5744 5773 5780 5772 5762 5756 5752 5747 5740 5733 5729 5725 5723 5721 5718 5716 5713 5711 5711 5710 5709 5709 5709 5709 5709 5710 5712 5714 5715 5718
5751 5750 5786 5804 5797 5784 5784 5776 5751 5736 5738 5743 5731 5732 5749 5768 5767 5763 5758 5752 5747 5741 5734 5728 5723 5718 5714 5711 5707 5704 5701 5698 5698 5698 5697 5697 5697 5697 5698 5699 5701 5703 5705 5708
5766 5769 5803 5810 5811 5797 5780 5777 5785 5766 5762 5758 5763 5751 5742 5743 5734 5736 5740 5741 5736 5732 5727 5722 5717 5712 5706 5701 5696 5693 5689 5686 5685 5684 5683 5685 5685 5684 5685 5687 5689 5692 5694 5698
5790 5773 5793 5809 5812 5807 5797 5787 5774 5755 5736 5732 5752 5742 5719 5719 5714 5719 5723 5725 5723 5721 5716 5711 5706 5701 5696 5692 5687 5683 5678 5674 5671 5670 5669 5670 5669 5670 5671 5672 5673 5676 5679 5683
5795 5774 5781 5792 5781 5776 5781 5780 5772 5762 5751 5728 5721 5720 5733 5720 5715 5714 5714 5712 5709 5705 5700 5696 5691 5688 5684 5679 5674 5668 5663 5659 5657 5655 5654 5652 5652 5652 5654 5655 5657 5660 5664 5667
5790 5777 5765 5775 5785 5786 5782 5777 5769 5744 5738 5741 5728 5708 5730 5720 5715 5710 5705 5701 5697 5692 5687 5682 5678 5673 5668 5662 5657 5652 5647 5643 5641 5639 5637 5636 5636 5635 5636 5638 5640 5643 5646 5651
5777 5759 5746 5757 5762 5767 5770 5777 5774 5762 5747 5733 5715 5698 5717 5714 5709 5703 5697 5691 5685 5680 5675 5670 5665 5659 5652 5646 5641 5636 5632 5629 5626 5624 5621 5619 5618 5618 5619 5620 5623 5625 5629 5633
5778 5759 5748 5739 5754 5771 5770 5773 5769 5753 5731 5720 5716 5702 5703 5701 5696 5691 5686 5680 5674 5668 5663 5658 5652 5645 5638 5631 5625 5620 5616 5613 5610 5607 5605 5602 5601 5602 5603 5605 5606 5609 5612 5617
5779 5758 5759 5764 5774 5776 5770 5765 5758 5742 5729 5713 5709 5703 5697 5693 5686 5680 5675 5669 5661 5654 5649 5643 5635 5627 5620 5613 5607 5602 5597 5594 5590 5587 5585 5584 5584 5585 5586 5587 5589 5592 5596 5601
5771 5755 5755 5755 5768 5770 5761 5751 5743 5731 5722 5712 5705 5699 5699 5690 5681 5670 5662 5654 5644 5639 5633 5624 5614 5606 5598 5591 5585 5581 5577 5574 5572 5570 5569 5569 5568 5569 5569 5571 5573 5576 5579 5583
5758 5744 5737 5739 5759 5757 5729 5725 5721 5714 5711 5701 5689 5689 5688 5674 5664 5656 5648 5639 5633 5623 5612 5602 5593 5585 5578 5573 5569 5566 5565 5563 5561 5560 5559 5559 5558 5558 5559 5560 5561 5562 5563 5564
5749 5739 5734 5738 5740 5713 5710 5725 5716 5704 5702 5698 5691 5680 5670 5660 5654 5647 5638 5628 5614 5603 5593 5584 5577 5571 5568 5565 5563 5560 5558 5556 5554 5553 5552 5552 5552 5552 5552 5552 5552 5552 5551 5551
5759 5741 5729 5727 5720 5713 5709 5711 5702 5688 5683 5683 5670 5661 5655 5648 5638 5634 5627 5610 5596 5587 5579 5572 5568 5565 5563 5561 5558 5556 5553 5551 5548 5547 5546 5546 5546 5546 5546 5546 5546 5545 5544 5543
5760 5748 5733 5721 5704 5695 5695 5702 5702 5687 5674 5667 5658 5647 5639 5630 5616 5614 5607 5594 5584 5575 5569 5566 5565 5563 5560 5558 5554 5550 5547 5544 5542 5541 5540 5539 5539 5539 5539 5540 5540 5540 5540 5539
5736 5733 5723 5711 5700 5703 5697 5698 5690 5662 5656 5660 5652 5640 5628 5614 5603 5599 5593 5583 5574 5569 5566 5565 5562 5559 5556 5553 5548 5543 5539 5536 5534 5533 5531 5530 5529 5529 5531 5532 5534 5534 5535 5535
5726 5718 5708 5701 5690 5683 5694 5685 5665 5656 5658 5649 5639 5628 5616 5607 5598 5588 5580 5573 5569 5566 5565 5562 5558 5554 5551 5546 5540 5535 5530 5526 5523 5521 5520 5520 5520 5521 5525 5527 5528 5528 5529 5530
5727 5711 5702 5695 5689 5695 5692 5678 5671 5661 5648 5638 5628 5619 5608 5597 5589 5581 5575 5571 5567 5564 5561 5556 5551 5546 5541 5534 5525 5519 5516 5513 5510 5509 5509 5509 5510 5512 5515 5517 5520 5522 5523 5525
5720 5718 5706 5695 5696 5692 5683 5674 5665 5653 5641 5633 5622 5612 5601 5589 5582 5576 5571 5568 5564 5560 5554 5548 5540 5532 5525 5517 5511 5505 5502 5499 5497 5497 5498 5499 5500 5504 5507 5510 5513 5516 5519 5522
5717 5713 5698 5688 5686 5679 5676 5664 5655 5647 5638 5627 5616 5605 5593 5583 5577 5571 5567 5563 5558 5552 5544 5534 5524 5516 5509 5503 5498 5494 5491 5488 5487 5487 5488 5490 5492 5495 5499 5504 5508 5512 5515 5518
5717 5701 5684 5674 5674 5665 5659 5656 5650 5639 5629 5620 5610 5599 5589 5580 5573 5567 5562 5556 5549 5540 5530 5520 5510 5502 5496 5492 5489 5485 5482 5480 5480 5480 5482 5484 5487 5491 5494 5499 5504 5508 5510 5514